Location: Oak Glen
(34.0495°N, 116.9470°E)
Time: 19:31:54
(UTC-07:00)

Tiangong 2 - Pass Details

Date: 15 October 2017
Orbit: 388 x 391 km, 42.8° (Epoch: 22 October)

Event Time Altitude Azimuth Distance (km) Brightness Sun altitude
Exits shadow 13:22:07 14° 25° (NNE) 1,192 3.9 -24.7°
Drops below altitude 10° 13:23:07 10° 42° (NE) 1,416 4.5 -24.5°
Sets 13:25:43 0° 64° (ENE) 2,272 6.1 -24.0°
